| time (UTC) | temp F | wind direction | speed MPH | gust MPH | rain 1hr in | rain 24hr in | rain mn in | humidity % | barometer mb |
| 20260506161004 | 45 | 130 | 1.0 | 5.0 | 0.00 | 0.00 | 0.00 | 41 | 966.3 |
| 20260506160504 | 45 | 337 | 1.0 | 4.0 | 0.00 | 0.00 | 0.00 | 43 | 966.3 |
| 20260506160004 | 45 | 63 | 1.0 | 4.0 | 0.00 | 0.00 | 0.00 | 42 | 966.2 |
| 20260506155504 | 45 | 108 | 1.0 | 4.0 | 0.00 | 0.00 | 0.00 | 44 | 966.2 |
| 20260506155004 | 45 | 139 | 2.0 | 5.0 | 0.00 | 0.00 | 0.00 | 40 | 966.2 |
| 20260506154434 | 45 | 147 | 2.0 | 5.0 | 0.00 | 0.00 | 0.00 | 42 | 966.1 |
| 20260506153934 | 45 | 2 | 2.0 | 5.0 | 0.00 | 0.00 | 0.00 | 42 | 966.2 |
| 20260506153434 | 45 | 0 | 2.0 | 7.0 | 0.00 | 0.00 | 0.00 | 43 | 966.2 |
| 20260506152934 | 45 | 187 | 2.0 | 7.0 | 0.00 | 0.00 | 0.00 | 41 | 966.1 |
| 20260506152434 | 45 | 168 | 3.0 | 8.0 | 0.00 | 0.00 | 0.00 | 42 | 966.2 |
| 20260506151934 | 44 | 233 | 3.0 | 8.0 | 0.00 | 0.00 | 0.00 | 43 | 966.2 |
| 20260506151404 | 44 | 199 | 3.0 | 9.0 | 0.00 | 0.00 | 0.00 | 42 | 966.2 |
| 20260506150904 | 44 | 146 | 3.0 | 11.0 | 0.00 | 0.00 | 0.00 | 43 | 966.1 |
| 20260506150334 | 44 | 216 | 3.0 | 11.0 | 0.00 | 0.00 | 0.00 | 41 | 966.1 |
| 20260506145834 | 45 | 120 | 4.0 | 13.0 | 0.00 | 0.00 | 0.00 | 42 | 966.3 |
| 20260506145306 | 44 | 186 | 5.0 | 13.0 | 0.00 | 0.00 | 0.00 | 42 | 966.3 |
| 20260506144734 | 45 | 51 | 4.0 | 13.0 | 0.00 | 0.00 | 0.00 | 42 | 966.2 |
| 20260506144234 | 46 | 166 | 3.0 | 12.0 | 0.00 | 0.00 | 0.00 | 37 | 966.4 |
| 20260506143734 | 48 | 120 | 2.0 | 9.0 | 0.00 | 0.00 | 0.00 | 37 | 966.3 |
| 20260506143234 | 46 | 203 | 2.0 | 9.0 | 0.00 | 0.00 | 0.00 | 39 | 966.3 |
| 20260506142704 | 46 | 64 | 2.0 | 11.0 | 0.00 | 0.00 | 0.00 | 40 | 966.4 |
| 20260506142204 | 46 | 30 | 3.0 | 12.0 | 0.00 | 0.00 | 0.00 | 39 | 966.4 |
| 20260506141704 | 46 | 77 | 4.0 | 17.0 | 0.00 | 0.00 | 0.00 | 40 | 966.3 |
| 20260506141204 | 46 | 95 | 4.0 | 17.0 | 0.00 | 0.00 | 0.00 | 39 | 966.5 |
| 20260506140704 | 46 | 109 | 4.0 | 17.0 | 0.00 | 0.00 | 0.00 | 39 | 966.2 |
| 20260506140204 | 46 | 95 | 3.0 | 12.0 | 0.00 | 0.00 | 0.00 | 39 | 966.3 |
| 20260506135704 | 47 | 48 | 3.0 | 9.0 | 0.00 | 0.00 | 0.00 | 40 | 966.3 |
| 20260506135204 | 47 | 44 | 3.0 | 7.0 | 0.00 | 0.00 | 0.00 | 41 | 966.2 |
| 20260506134703 | 48 | 78 | 2.0 | 9.0 | 0.00 | 0.00 | 0.00 | 39 | 966.3 |
| 20260506134203 | 48 | 97 | 3.0 | 9.0 | 0.00 | 0.00 | 0.00 | 35 | 966.2 |
| 20260506133703 | 50 | 148 | 3.0 | 10.0 | 0.00 | 0.00 | 0.00 | 33 | 966.2 |
| 20260506133203 | 52 | 83 | 3.0 | 10.0 | 0.00 | 0.00 | 0.00 | 30 | 966.3 |
| 20260506132703 | 53 | 199 | 3.0 | 11.0 | 0.00 | 0.00 | 0.00 | 34 | 966.3 |
| 20260506132203 | 54 | 215 | 3.0 | 11.0 | 0.00 | 0.00 | 0.00 | 35 | 966.3 |
| 20260506131703 | 53 | 340 | 3.0 | 10.0 | 0.00 | 0.00 | 0.00 | 32 | 966.2 |
| 20260506131203 | 53 | 52 | 3.0 | 10.0 | 0.00 | 0.00 | 0.00 | 31 | 966.2 |
| 20260506130703 | 53 | 130 | 3.0 | 9.0 | 0.00 | 0.00 | 0.00 | 33 | 966.3 |
| 20260506130203 | 53 | 192 | 3.0 | 9.0 | 0.00 | 0.00 | 0.00 | 35 | 966.4 |
| 20260506125633 | 53 | 148 | 3.0 | 8.0 | 0.00 | 0.00 | 0.00 | 35 | 966.4 |
| 20260506125133 | 53 | 132 | 3.0 | 10.0 | 0.00 | 0.00 | 0.00 | 33 | 966.4 |
| 20260506124633 | 52 | 154 | 4.0 | 10.0 | 0.00 | 0.00 | 0.00 | 35 | 966.3 |
| 20260506124133 | 53 | 149 | 3.0 | 10.0 | 0.00 | 0.00 | 0.00 | 35 | 966.4 |
| 20260506123633 | 53 | 127 | 3.0 | 10.0 | 0.00 | 0.00 | 0.00 | 34 | 966.4 |
| 20260506123133 | 52 | 174 | 3.0 | 13.0 | 0.00 | 0.00 | 0.00 | 34 | 966.4 |
| 20260506122633 | 51 | 25 | 4.0 | 15.0 | 0.00 | 0.00 | 0.00 | 33 | 966.4 |
| 20260506122133 | 51 | 120 | 4.0 | 15.0 | 0.00 | 0.00 | 0.00 | 31 | 966.3 |
| 20260506121633 | 51 | 22 | 3.0 | 16.0 | 0.00 | 0.00 | 0.00 | 34 | 966.4 |
| 20260506121133 | 52 | 10 | 3.0 | 17.0 | 0.00 | 0.00 | 0.00 | 36 | 966.4 |
| 20260506120603 | 51 | 42 | 3.0 | 17.0 | 0.00 | 0.00 | 0.00 | 33 | 966.5 |
| 20260506120033 | 50 | 352 | 4.0 | 17.0 | 0.00 | 0.00 | 0.00 | 34 | 966.4 |
| 20260506115533 | 51 | 117 | 4.0 | 12.0 | 0.00 | 0.00 | 0.00 | 38 | 966.5 |
| 20260506115033 | 50 | 184 | 4.0 | 12.0 | 0.00 | 0.00 | 0.00 | 37 | 966.5 |
| 20260506114533 | 49 | 134 | 3.0 | 12.0 | 0.00 | 0.00 | 0.00 | 34 | 966.5 |
| 20260506114033 | 51 | 280 | 3.0 | 12.0 | 0.00 | 0.00 | 0.00 | 36 | 966.5 |
| 20260506113533 | 51 | 52 | 3.0 | 10.0 | 0.00 | 0.00 | 0.00 | 37 | 966.5 |
| 20260506113033 | 51 | 16 | 4.0 | 14.0 | 0.00 | 0.00 | 0.00 | 36 | 966.5 |
| 20260506112533 | 51 | 60 | 3.0 | 13.0 | 0.00 | 0.00 | 0.00 | 32 | 966.4 |
| 20260506112033 | 51 | 127 | 3.0 | 11.0 | 0.00 | 0.00 | 0.00 | 35 | 966.5 |
| 20260506111533 | 51 | 103 | 3.0 | 11.0 | 0.00 | 0.00 | 0.00 | 37 | 966.4 |
| 20260506111003 | 50 | 105 | 3.0 | 12.0 | 0.00 | 0.00 | 0.00 | 38 | 966.5 |
| 20260506110503 | 48 | 81 | 4.0 | 14.0 | 0.00 | 0.00 | 0.00 | 43 | 966.4 |
| 20260506110003 | 47 | 118 | 5.0 | 17.0 | 0.00 | 0.00 | 0.00 | 38 | 966.4 |
| 20260506105432 | 47 | 16 | 5.0 | 17.0 | 0.00 | 0.00 | 0.00 | 39 | 966.5 |
| 20260506104932 | 47 | 145 | 4.0 | 15.0 | 0.00 | 0.00 | 0.00 | 37 | 966.3 |
| 20260506104433 | 50 | 201 | 3.0 | 15.0 | 0.00 | 0.00 | 0.00 | 45 | 966.5 |
| 20260506103902 | 49 | 345 | 3.0 | 15.0 | 0.00 | 0.00 | 0.00 | 42 | 966.5 |
| 20260506103332 | 49 | 66 | 4.0 | 15.0 | 0.00 | 0.00 | 0.00 | 39 | 966.5 |
| 20260506102832 | 47 | 73 | 5.0 | 16.0 | 0.00 | 0.00 | 0.00 | 43 | 966.5 |
| 20260506102332 | 47 | 77 | 5.0 | 16.0 | 0.00 | 0.00 | 0.00 | 43 | 966.5 |
| 20260506101832 | 46 | 128 | 5.0 | 15.0 | 0.00 | 0.00 | 0.00 | 41 | 966.4 |
| 20260506101332 | 47 | 140 | 4.0 | 14.0 | 0.00 | 0.00 | 0.00 | 40 | 966.4 |
| 20260506100832 | 49 | 208 | 3.0 | 12.0 | 0.00 | 0.00 | 0.00 | 42 | 966.5 |
| 20260506100332 | 49 | 77 | 4.0 | 12.0 | 0.00 | 0.00 | 0.00 | 43 | 966.5 |
| 20260506095832 | 48 | 243 | 4.0 | 12.0 | 0.00 | 0.00 | 0.00 | 45 | 966.5 |
| 20260506095332 | 48 | 78 | 3.0 | 12.0 | 0.00 | 0.00 | 0.00 | 43 | 966.5 |
| 20260506094832 | 49 | 113 | 3.0 | 13.0 | 0.00 | 0.00 | 0.00 | 44 | 966.6 |
| 20260506094332 | 49 | 139 | 4.0 | 13.0 | 0.00 | 0.00 | 0.00 | 47 | 966.4 |
| 20260506093802 | 47 | 109 | 4.0 | 18.0 | 0.00 | 0.00 | 0.00 | 45 | 966.4 |
| 20260506093302 | 48 | 57 | 4.0 | 18.0 | 0.00 | 0.00 | 0.00 | 45 | 966.4 |
| 20260506092802 | 48 | 126 | 4.0 | 18.0 | 0.00 | 0.00 | 0.00 | 45 | 966.4 |
| 20260506092305 | 48 | 325 | 3.0 | 10.0 | 0.00 | 0.00 | 0.00 | 44 | 966.5 |
| 20260506091802 | 47 | 50 | 3.0 | 15.0 | 0.00 | 0.00 | 0.00 | 45 | 966.5 |
| 20260506091302 | 47 | 34 | 4.0 | 15.0 | 0.00 | 0.00 | 0.00 | 46 | 966.5 |
| 20260506090802 | 46 | 358 | 4.0 | 13.0 | 0.00 | 0.00 | 0.00 | 47 | 966.5 |
| 20260506090232 | 46 | 99 | 4.0 | 11.0 | 0.00 | 0.00 | 0.00 | 47 | 966.5 |
| 20260506085732 | 46 | 97 | 4.0 | 11.0 | 0.00 | 0.00 | 0.00 | 47 | 966.4 |
| 20260506085232 | 47 | 358 | 4.0 | 15.0 | 0.00 | 0.00 | 0.00 | 48 | 966.5 |
| 20260506084732 | 46 | 93 | 4.0 | 15.0 | 0.00 | 0.00 | 0.00 | 48 | 966.5 |
| 20260506084232 | 45 | 76 | 5.0 | 18.0 | 0.00 | 0.00 | 0.00 | 49 | 966.5 |
| 20260506083702 | 45 | 112 | 4.0 | 18.0 | 0.00 | 0.00 | 0.00 | 48 | 966.4 |
| 20260506083202 | 46 | 101 | 4.0 | 18.0 | 0.00 | 0.00 | 0.00 | 47 | 966.4 |
| 20260506082702 | 46 | 109 | 4.0 | 16.0 | 0.00 | 0.00 | 0.00 | 47 | 966.6 |
| 20260506082202 | 45 | 20 | 6.0 | 20.0 | 0.00 | 0.00 | 0.00 | 50 | 966.4 |
| 20260506081702 | 44 | 112 | 5.0 | 20.0 | 0.00 | 0.00 | 0.00 | 54 | 966.5 |
| 20260506081202 | 42 | 184 | 5.0 | 15.0 | 0.00 | 0.00 | 0.00 | 50 | 966.4 |
| 20260506080702 | 44 | 41 | 5.0 | 15.0 | 0.00 | 0.00 | 0.00 | 52 | 966.5 |
| 20260506080202 | 44 | 65 | 5.0 | 15.0 | 0.00 | 0.00 | 0.00 | 49 | 966.3 |
| 20260506073201 | 42 | 98 | 5.0 | 15.0 | 0.00 | 0.00 | 0.00 | 53 | 966.4 |
| 20260506072701 | 43 | 111 | 5.0 | 13.0 | 0.00 | 0.00 | 0.00 | 56 | 966.2 |
| 20260506072201 | 42 | 79 | 5.0 | 16.0 | 0.00 | 0.00 | 0.00 | 57 | 966.2 |
| 20260506071701 | 42 | 104 | 5.0 | 16.0 | 0.00 | 0.00 | 0.00 | 56 | 966.2 |
| 20260506071201 | 42 | 344 | 4.0 | 14.0 | 0.00 | 0.00 | 0.00 | 57 | 966.1 |
| 20260506070701 | 41 | 73 | 5.0 | 17.0 | 0.00 | 0.00 | 0.00 | 55 | 966.0 |
| 20260506070201 | 43 | 145 | 5.0 | 17.0 | 0.00 | 0.00 | 0.00 | 55 | 966.0 |
| 20260506062101 | 41 | 43 | 6.0 | 17.0 | 0.00 | 0.00 | 0.00 | 62 | 966.0 |
| 20260506061531 | 38 | 179 | 6.0 | 17.0 | 0.00 | 0.00 | 0.00 | 62 | 965.6 |
| 20260506061001 | 40 | 123 | 5.0 | 19.0 | 0.00 | 0.00 | 0.00 | 60 | 966.0 |
| 20260506060431 | 40 | 0 | 5.0 | 19.0 | 0.00 | 0.00 | 0.00 | 60 | 966.0 |
| 20260506051301 | 38 | 113 | 5.0 | 16.0 | 0.00 | 0.00 | 0.00 | 62 | 965.4 |
| 20260506050801 | 39 | 107 | 5.0 | 19.0 | 0.00 | 0.00 | 0.00 | 63 | 965.3 |
| 20260506050301 | 38 | 120 | 6.0 | 19.0 | 0.00 | 0.00 | 0.00 | 65 | 965.3 |
| 20260506044731 | 37 | 166 | 5.0 | 17.0 | 0.00 | 0.00 | 0.00 | 66 | 965.2 |
| 20260506044231 | 37 | 85 | 5.0 | 17.0 | 0.00 | 0.00 | 0.00 | 67 | 965.4 |
| 20260506043731 | 36 | 122 | 5.0 | 17.0 | 0.00 | 0.00 | 0.00 | 67 | 965.2 |
| 20260506043231 | 36 | 96 | 5.0 | 15.0 | 0.00 | 0.00 | 0.00 | 68 | 965.2 |
| 20260506042701 | 35 | 131 | 5.0 | 18.0 | 0.00 | 0.00 | 0.00 | 70 | 965.2 |
| 20260506042200 | 32 | 277 | 5.0 | 18.0 | 0.00 | 0.00 | 0.00 | 74 | 965.2 |
| 20260506041700 | 33 | 124 | 5.0 | 17.0 | 0.00 | 0.00 | 0.00 | 71 | 965.0 |
| 20260506041200 | 36 | 63 | 5.0 | 21.0 | 0.00 | 0.00 | 0.00 | 67 | 965.0 |
| 20260506040700 | 35 | 105 | 4.0 | 21.0 | 0.00 | 0.00 | 0.00 | 68 | 965.0 |
| 20260506040130 | 35 | 3 | 4.0 | 21.0 | 0.00 | 0.00 | 0.00 | 68 | 965.0 |
| 20260506035630 | 35 | 11 | 4.0 | 17.0 | 0.00 | 0.00 | 0.00 | 71 | 965.0 |
| 20260506035100 | 34 | 93 | 5.0 | 17.0 | 0.00 | 0.00 | 0.00 | 72 | 965.0 |
| 20260506034600 | 33 | 88 | 4.0 | 17.0 | 0.00 | 0.00 | 0.00 | 74 | 965.0 |
| 20260506034030 | 33 | 73 | 4.0 | 12.0 | 0.00 | 0.00 | 0.00 | 75 | 965.0 |
| 20260506033530 | 31 | 353 | 4.0 | 12.0 | 0.00 | 0.00 | 0.00 | 80 | 964.6 |
| 20260506033000 | 31 | 64 | 4.0 | 13.0 | 0.00 | 0.00 | 0.00 | 80 | 965.0 |
| 20260506032430 | 31 | 175 | 4.0 | 13.0 | 0.00 | 0.00 | 0.00 | 81 | 965.0 |
| 20260506031930 | 31 | 154 | 5.0 | 13.0 | 0.00 | 0.00 | 0.00 | 81 | 965.0 |
| 20260506031430 | 31 | 203 | 5.0 | 16.0 | 0.00 | 0.00 | 0.00 | 81 | 965.0 |
| 20260506030930 | 31 | 112 | 5.0 | 16.0 | 0.00 | 0.00 | 0.00 | 81 | 964.6 |
| 20260506030430 | 31 | 113 | 5.0 | 15.0 | 0.00 | 0.00 | 0.00 | 82 | 964.6 |
| 20260506025930 | 31 | 138 | 5.0 | 16.0 | 0.00 | 0.00 | 0.00 | 81 | 964.6 |
| 20260506025400 | 31 | 146 | 5.0 | 16.0 | 0.00 | 0.00 | 0.00 | 81 | 964.6 |
| 20260506024900 | 31 | 115 | 5.0 | 16.0 | 0.00 | 0.00 | 0.00 | 81 | 964.6 |
| 20260506024400 | 31 | 67 | 5.0 | 16.0 | 0.00 | 0.00 | 0.00 | 82 | 964.6 |
| 20260506023900 | 31 | 41 | 5.0 | 17.0 | 0.00 | 0.00 | 0.00 | 82 | 964.6 |
| 20260506023400 | 31 | 36 | 5.0 | 17.0 | 0.00 | 0.00 | 0.00 | 82 | 964.5 |
| 20260506022900 | 31 | 103 | 5.0 | 15.0 | 0.00 | 0.00 | 0.00 | 81 | 964.6 |
| 20260506022400 | 31 | 96 | 4.0 | 15.0 | 0.00 | 0.00 | 0.00 | 81 | 965.0 |
| 20260506021900 | 31 | 339 | 4.0 | 15.0 | 0.00 | 0.00 | 0.00 | 80 | 964.6 |
| 20260506021400 | 31 | 117 | 4.0 | 13.0 | 0.00 | 0.00 | 0.00 | 81 | 964.6 |
| 20260506020830 | 31 | 7 | 4.0 | 13.0 | 0.00 | 0.00 | 0.00 | 81 | 964.5 |
| 20260506020330 | 31 | 114 | 4.0 | 15.0 | 0.00 | 0.00 | 0.00 | 81 | 964.5 |
| 20260506015800 | 31 | 92 | 4.0 | 15.0 | 0.00 | 0.00 | 0.00 | 81 | 964.4 |
| 20260506015300 | 31 | 28 | 4.0 | 15.0 | 0.00 | 0.00 | 0.00 | 81 | 965.0 |
| 20260506014730 | 31 | 56 | 4.0 | 12.0 | 0.00 | 0.00 | 0.00 | 82 | 964.5 |
| 20260506014230 | 31 | 118 | 3.0 | 11.0 | 0.00 | 0.00 | 0.00 | 82 | 964.5 |
| 20260506013730 | 31 | 14 | 3.0 | 11.0 | 0.00 | 0.00 | 0.00 | 83 | 964.4 |
| 20260506013230 | 31 | 78 | 3.0 | 10.0 | 0.00 | 0.00 | 0.00 | 83 | 964.4 |
| 20260506012700 | 31 | 39 | 3.0 | 10.0 | 0.00 | 0.00 | 0.00 | 83 | 964.4 |
| 20260506012200 | 31 | 70 | 3.0 | 11.0 | 0.00 | 0.00 | 0.00 | 83 | 964.3 |
| 20260506011700 | 30 | 124 | 3.0 | 16.0 | 0.00 | 0.00 | 0.00 | 84 | 964.2 |
| 20260506011200 | 30 | 62 | 3.0 | 16.0 | 0.00 | 0.00 | 0.00 | 84 | 964.2 |
| 20260506010700 | 30 | 104 | 3.0 | 16.0 | 0.00 | 0.00 | 0.00 | 83 | 964.2 |
| 20260506010130 | 30 | 128 | 3.0 | 12.0 | 0.00 | 0.00 | 0.00 | 83 | 964.1 |
| 20260506005630 | 30 | 114 | 3.0 | 12.0 | 0.00 | 0.00 | 0.00 | 82 | 964.2 |
| 20260506005100 | 29 | 83 | 3.0 | 9.0 | 0.00 | 0.00 | 0.00 | 83 | 964.1 |
| 20260506004600 | 29 | 66 | 2.0 | 9.0 | 0.00 | 0.00 | 0.00 | 82 | 964.1 |
| 20260506004100 | 30 | 349 | 3.0 | 10.0 | 0.00 | 0.00 | 0.00 | 82 | 964.2 |
| 20260506003600 | 30 | 356 | 3.0 | 10.0 | 0.00 | 0.00 | 0.00 | 83 | 964.0 |
| 20260506003100 | 30 | 85 | 4.0 | 11.0 | 0.00 | 0.00 | 0.00 | 82 | 964.2 |
| 20260506002530 | 30 | 68 | 4.0 | 13.0 | 0.00 | 0.00 | 0.00 | 82 | 964.0 |
| 20260506002000 | 30 | 247 | 3.0 | 13.0 | 0.00 | 0.00 | 0.00 | 82 | 964.0 |
| 20260506001429 | 30 | 70 | 3.0 | 13.0 | 0.00 | 0.00 | 0.00 | 83 | 964.0 |
| 20260506000929 | 30 | 118 | 4.0 | 16.0 | 0.00 | 0.00 | 0.00 | 84 | 964.0 |
| 20260506000401 | 30 | 122 | 3.0 | 16.0 | 0.00 | 0.00 | 0.00 | 84 | 964.0 |
| 20260505235859 | 29 | 26 | 2.0 | 9.0 | 0.00 | 0.00 | 0.00 | 84 | 964.0 |
| 20260505235359 | 29 | 353 | 3.0 | 9.0 | 0.00 | 0.00 | 0.00 | 83 | 964.1 |
| 20260505234859 | 29 | 94 | 3.0 | 7.0 | 0.00 | 0.00 | 0.00 | 83 | 964.0 |
| 20260505234329 | 29 | 102 | 2.0 | 9.0 | 0.00 | 0.00 | 0.00 | 83 | 964.0 |
| 20260505233829 | 29 | 121 | 2.0 | 9.0 | 0.00 | 0.00 | 0.00 | 83 | 964.0 |
| 20260505233329 | 29 | 61 | 3.0 | 11.0 | 0.00 | 0.00 | 0.00 | 83 | 964.0 |
| 20260505232759 | 30 | 88 | 3.0 | 11.0 | 0.00 | 0.00 | 0.00 | 84 | 964.1 |
| 20260505232259 | 30 | 123 | 3.0 | 11.0 | 0.00 | 0.00 | 0.00 | 83 | 964.0 |
| 20260505231759 | 30 | 67 | 3.0 | 9.0 | 0.00 | 0.00 | 0.00 | 84 | 964.0 |
| 20260505231259 | 29 | 89 | 3.0 | 10.0 | 0.00 | 0.00 | 0.00 | 84 | 964.0 |
| 20260505230729 | 29 | 16 | 3.0 | 13.0 | 0.00 | 0.00 | 0.00 | 85 | 964.0 |
| 20260505230229 | 29 | 81 | 3.0 | 13.0 | 0.00 | 0.00 | 0.00 | 84 | 964.0 |
| 20260505225729 | 29 | 113 | 3.0 | 13.0 | 0.00 | 0.00 | 0.00 | 84 | 964.0 |
| 20260505225229 | 29 | 17 | 2.0 | 7.0 | 0.00 | 0.00 | 0.00 | 84 | 964.1 |
| 20260505224729 | 29 | 14 | 2.0 | 7.0 | 0.00 | 0.00 | 0.00 | 84 | 964.0 |
| 20260505224229 | 29 | 310 | 2.0 | 6.0 | 0.00 | 0.00 | 0.00 | 84 | 964.0 |
| 20260505223659 | 29 | 15 | 2.0 | 8.0 | 0.00 | 0.00 | 0.00 | 83 | 964.0 |
| 20260505223159 | 29 | 14 | 2.0 | 9.0 | 0.00 | 0.00 | 0.00 | 82 | 964.0 |
| 20260505222659 | 30 | 117 | 2.0 | 9.0 | 0.00 | 0.00 | 0.00 | 82 | 964.0 |
| 20260505222129 | 30 | 49 | 2.0 | 9.0 | 0.00 | 0.00 | 0.00 | 82 | 964.0 |
| 20260505221629 | 30 | 67 | 2.0 | 9.0 | 0.00 | 0.00 | 0.00 | 82 | 964.0 |
| 20260505221129 | 30 | 134 | 2.0 | 9.0 | 0.00 | 0.00 | 0.00 | 82 | 964.0 |
| 20260505220629 | 30 | 95 | 2.0 | 9.0 | 0.00 | 0.00 | 0.00 | 83 | 964.0 |
| 20260505220129 | 29 | 50 | 2.0 | 6.0 | 0.00 | 0.00 | 0.00 | 82 | 964.0 |
| 20260505215629 | 30 | 97 | 2.0 | 8.0 | 0.00 | 0.00 | 0.00 | 82 | 964.0 |
| 20260505215059 | 30 | 3 | 3.0 | 11.0 | 0.00 | 0.00 | 0.00 | 82 | 964.0 |
| 20260505214559 | 30 | 24 | 3.0 | 12.0 | 0.00 | 0.00 | 0.00 | 82 | 964.0 |
| 20260505214059 | 30 | 334 | 3.0 | 12.0 | 0.00 | 0.00 | 0.00 | 82 | 964.0 |
| 20260505213529 | 30 | 82 | 3.0 | 13.0 | 0.00 | 0.00 | 0.00 | 82 | 964.0 |
| 20260505213029 | 30 | 125 | 3.0 | 13.0 | 0.00 | 0.00 | 0.00 | 81 | 964.0 |
| 20260505212529 | 30 | 105 | 2.0 | 11.0 | 0.00 | 0.00 | 0.00 | 82 | 964.0 |
| 20260505212028 | 30 | 40 | 1.0 | 7.0 | 0.00 | 0.00 | 0.00 | 83 | 964.0 |
| 20260505211528 | 30 | 120 | 1.0 | 7.0 | 0.00 | 0.00 | 0.00 | 83 | 963.6 |
| 20260505210958 | 30 | 0 | 1.0 | 7.0 | 0.00 | 0.00 | 0.00 | 83 | 964.0 |
| 20260505210458 | 30 | 99 | 2.0 | 7.0 | 0.00 | 0.00 | 0.00 | 82 | 964.0 |
| 20260505205958 | 31 | 119 | 3.0 | 11.0 | 0.00 | 0.00 | 0.00 | 82 | 964.0 |
| 20260505205458 | 31 | 78 | 3.0 | 11.0 | 0.00 | 0.00 | 0.00 | 83 | 963.5 |
| 20260505204958 | 31 | 102 | 3.0 | 9.0 | 0.00 | 0.00 | 0.00 | 83 | 963.3 |
| 20260505204458 | 31 | 223 | 3.0 | 10.0 | 0.00 | 0.00 | 0.00 | 85 | 963.3 |
| 20260505203958 | 31 | 59 | 3.0 | 10.0 | 0.00 | 0.00 | 0.00 | 85 | 963.4 |
| 20260505203458 | 31 | 99 | 3.0 | 10.0 | 0.00 | 0.00 | 0.00 | 86 | 963.4 |
| 20260505202958 | 31 | 70 | 3.0 | 10.0 | 0.00 | 0.00 | 0.00 | 87 | 963.1 |
| 20260505202458 | 31 | 96 | 3.0 | 9.0 | 0.00 | 0.00 | 0.00 | 88 | 963.1 |
| 20260505201958 | 31 | 37 | 3.0 | 11.0 | 0.00 | 0.00 | 0.00 | 87 | 963.2 |
| 20260505201458 | 31 | 356 | 3.0 | 11.0 | 0.00 | 0.00 | 0.00 | 87 | 963.2 |
| 20260505200958 | 31 | 80 | 3.0 | 12.0 | 0.00 | 0.00 | 0.00 | 87 | 963.3 |
| 20260505200458 | 31 | 42 | 2.0 | 12.0 | 0.00 | 0.00 | 0.00 | 86 | 963.3 |
| 20260505195958 | 31 | 77 | 2.0 | 10.0 | 0.00 | 0.00 | 0.00 | 84 | 963.3 |
| 20260505195458 | 32 | 75 | 2.0 | 8.0 | 0.00 | 0.00 | 0.00 | 83 | 963.3 |
| 20260505194958 | 32 | 63 | 3.0 | 8.0 | 0.00 | 0.00 | 0.00 | 82 | 963.3 |
| 20260505194458 | 32 | 15 | 3.0 | 11.0 | 0.00 | 0.00 | 0.00 | 81 | 963.3 |
| 20260505193958 | 32 | 108 | 3.0 | 13.0 | 0.00 | 0.00 | 0.00 | 81 | 963.3 |
| 20260505193458 | 33 | 107 | 3.0 | 13.0 | 0.00 | 0.00 | 0.00 | 81 | 963.2 |
| 20260505192958 | 33 | 111 | 4.0 | 15.0 | 0.00 | 0.00 | 0.00 | 79 | 963.2 |
| 20260505192458 | 33 | 55 | 4.0 | 15.0 | 0.00 | 0.00 | 0.00 | 78 | 963.2 |
| 20260505191958 | 34 | 334 | 4.0 | 15.0 | 0.00 | 0.00 | 0.00 | 77 | 963.2 |
| 20260505191428 | 34 | 117 | 5.0 | 17.0 | 0.00 | 0.00 | 0.00 | 73 | 963.2 |
| 20260505190928 | 35 | 131 | 5.0 | 17.0 | 0.00 | 0.00 | 0.00 | 71 | 963.1 |
| 20260505190358 | 35 | 53 | 4.0 | 15.0 | 0.00 | 0.00 | 0.00 | 71 | 963.1 |
| 20260505185858 | 35 | 113 | 4.0 | 15.0 | 0.00 | 0.00 | 0.00 | 70 | 963.0 |
| 20260505185358 | 35 | 66 | 5.0 | 17.0 | 0.00 | 0.00 | 0.00 | 69 | 963.0 |
| 20260505184858 | 35 | 124 | 6.0 | 19.0 | 0.00 | 0.00 | 0.00 | 70 | 963.0 |
| 20260505184358 | 35 | 114 | 5.0 | 19.0 | 0.00 | 0.00 | 0.00 | 69 | 963.0 |
| 20260505183828 | 35 | 63 | 4.0 | 13.0 | 0.00 | 0.00 | 0.00 | 68 | 963.0 |
| 20260505183328 | 35 | 114 | 4.0 | 14.0 | 0.00 | 0.00 | 0.00 | 66 | 963.0 |
| 20260505182827 | 35 | 119 | 5.0 | 17.0 | 0.00 | 0.00 | 0.00 | 66 | 963.0 |
| 20260505182327 | 35 | 192 | 6.0 | 17.0 | 0.00 | 0.00 | 0.00 | 65 | 963.0 |
| 20260505181757 | 36 | 161 | 7.0 | 20.0 | 0.00 | 0.00 | 0.00 | 63 | 963.0 |
| 20260505181257 | 36 | 126 | 7.0 | 21.0 | 0.00 | 0.00 | 0.00 | 62 | 963.0 |
| 20260505180757 | 37 | 124 | 8.0 | 21.0 | 0.00 | 0.00 | 0.00 | 62 | 963.0 |
| 20260505180257 | 37 | 184 | 7.0 | 21.0 | 0.00 | 0.00 | 0.00 | 62 | 962.6 |
| 20260505175757 | 37 | 184 | 6.0 | 14.0 | 0.00 | 0.00 | 0.00 | 63 | 963.0 |
| 20260505175257 | 37 | 196 | 7.0 | 14.0 | 0.00 | 0.00 | 0.00 | 65 | 962.6 |
| 20260505174757 | 36 | 182 | 6.0 | 15.0 | 0.00 | 0.00 | 0.00 | 65 | 962.6 |
| 20260505174257 | 36 | 189 | 6.0 | 15.0 | 0.00 | 0.00 | 0.00 | 65 | 962.6 |
| 20260505173757 | 36 | 198 | 7.0 | 19.0 | 0.00 | 0.00 | 0.00 | 64 | 962.6 |
| 20260505173257 | 37 | 189 | 7.0 | 19.0 | 0.00 | 0.00 | 0.00 | 64 | 963.0 |
| 20260505172757 | 37 | 134 | 6.0 | 19.0 | 0.00 | 0.00 | 0.00 | 61 | 962.4 |
| 20260505172257 | 37 | 190 | 6.0 | 16.0 | 0.00 | 0.00 | 0.00 | 58 | 962.5 |
| 20260505171757 | 37 | 189 | 6.0 | 18.0 | 0.00 | 0.00 | 0.00 | 56 | 962.5 |
| 20260505171257 | 38 | 133 | 6.0 | 18.0 | 0.00 | 0.00 | 0.00 | 53 | 962.5 |
| 20260505170757 | 38 | 151 | 6.0 | 18.0 | 0.00 | 0.00 | 0.00 | 52 | 962.5 |
| 20260505170227 | 38 | 164 | 7.0 | 22.0 | 0.00 | 0.00 | 0.00 | 53 | 962.4 |
| 20260505165657 | 38 | 189 | 8.0 | 22.0 | 0.00 | 0.00 | 0.00 | 51 | 962.3 |
| 20260505165157 | 38 | 169 | 8.0 | 22.0 | 0.00 | 0.00 | 0.00 | 51 | 962.4 |
| 20260505164657 | 38 | 157 | 7.0 | 26.0 | 0.00 | 0.00 | 0.00 | 52 | 962.4 |
| 20260505164157 | 38 | 175 | 7.0 | 26.0 | 0.00 | 0.00 | 0.00 | 51 | 962.3 |
| 20260505163657 | 38 | 182 | 7.0 | 26.0 | 0.00 | 0.00 | 0.00 | 50 | 962.1 |
| 20260505163127 | 39 | 61 | 6.0 | 26.0 | 0.00 | 0.00 | 0.00 | 50 | 962.0 |
| 20260505162627 | 39 | 67 | 6.0 | 20.0 | 0.00 | 0.00 | 0.00 | 48 | 962.1 |
| 20260505162127 | 40 | 35 | 5.0 | 16.0 | 0.00 | 0.00 | 0.00 | 54 | 962.1 |
| 20260505161627 | 39 | 86 | 5.0 | 16.0 | 0.00 | 0.00 | 0.00 | 55 | 962.1 |
| 20260505161127 | 38 | 187 | 5.0 | 16.0 | 0.00 | 0.00 | 0.00 | 53 | 962.1 |